Weather History for NW Arkansas Airport, AR

Change the Weather History Date:

Thursday, February 20, 2014

  Actual Average Record
Temperature  
Mean Temperature 54 °F -  
Max Temperature 70 °F - - ()
Min Temperature 37 °F - - ()
Degree Days  
Heating Degree Days 10    
Growing Degree Days 4 (Base 50)    
Moisture  
Dew Point 43 °F    
Average Humidity 65    
Maximum Humidity 87    
Minimum Humidity 38    
Precipitation  
Precipitation 0.00 in - - ()
Sea Level Pressure  
Sea Level Pressure 29.65 in    
Wind  
Wind Speed 19 mph (SW)    
Max Wind Speed 32 mph    
Max Gust Speed 44 mph    
Visibility 10 miles    
Events      
T = Trace of Precipitation, MM = Missing Value Source: NWS Daily Summary

Daily Weather History Graph

Daily Weather History Graph

Search for Another Location

Airport:

Trip Planner

Search our weather history database for the weather conditions in past years. The results will help you decide how hot, cold, wet, or windy it might be!

Date:

Astronomy

Feb. 20, 2014 Rise Set
Actual Time 6:59 AM CST 6:03 PM CST
Civil Twilight 6:32 AM CST 6:29 PM CST
Nautical Twilight 6:02 AM CST 6:59 PM CST
Astronomical Twilight 5:33 AM CST 7:29 PM CST
Moon 11:47 PM CST (2/20) 9:52 AM CST (2/20)
Length of Visible Light 11h 56m
Length of Day
11h 04m
Waning Gibbous, 70% of the Moon is Illuminated
Feb 20
Waning Gibbous
Feb 22
Last Quarter
Mar 1
New
Mar 8
First Quarter
Mar 16
Full

Hourly Weather History & Observations

Time (CST) Temp. Windchill Dew Point Humidity Pressure Visibility Wind Dir Wind Speed Gust Speed Precip Events Conditions
12:53 AM 59.0 °F - 55.0 °F 87% 29.57 in 10.0 mi South 17.3 mph - N/A   Partly Cloudy
1:53 AM 61.0 °F - 55.9 °F 83% 29.54 in 10.0 mi South 18.4 mph - N/A   Overcast
2:53 AM 62.1 °F - 55.9 °F 80% 29.52 in 10.0 mi South 18.4 mph 27.6 mph N/A   Overcast
3:01 AM 62.6 °F - 55.4 °F 77% 29.54 in 10.0 mi South 19.6 mph 27.6 mph N/A   Overcast
3:53 AM 63.0 °F - 55.9 °F 78% 29.49 in 10.0 mi South 19.6 mph 25.3 mph N/A   Overcast
4:02 AM 62.6 °F - 55.4 °F 77% 29.51 in 10.0 mi South 19.6 mph 26.5 mph N/A   Overcast
4:53 AM 63.0 °F - 57.0 °F 81% 29.48 in 10.0 mi South 19.6 mph 28.8 mph N/A   Overcast
5:53 AM 63.0 °F - 57.0 °F 81% 29.46 in 10.0 mi South 23.0 mph 33.4 mph N/A   Overcast
6:53 AM 63.0 °F - 57.0 °F 81% 29.46 in 10.0 mi South 20.7 mph 33.4 mph N/A   Overcast
7:24 AM 62.6 °F - 55.4 °F 77% 29.47 in 10.0 mi South 23.0 mph 36.8 mph N/A   Overcast
7:53 AM 64.0 °F - 55.9 °F 75% 29.45 in 10.0 mi South 25.3 mph 35.7 mph N/A   Overcast
8:20 AM 64.4 °F - 55.4 °F 73% 29.49 in 10.0 mi SSW 26.5 mph 32.2 mph N/A   Overcast
8:53 AM 64.9 °F - 55.9 °F 73% 29.47 in 10.0 mi SSW 19.6 mph 32.2 mph N/A   Overcast
9:07 AM 64.4 °F - 55.4 °F 73% 29.49 in 10.0 mi SSW 18.4 mph 26.5 mph N/A   Overcast
9:34 AM 66.2 °F - 55.4 °F 68% 29.49 in 10.0 mi SSW 23.0 mph 34.5 mph N/A   Mostly Cloudy
9:53 AM 66.9 °F - 55.0 °F 66% 29.46 in 10.0 mi SSW 17.3 mph 34.5 mph N/A   Mostly Cloudy
10:53 AM 70.0 °F - 48.0 °F 46% 29.47 in 10.0 mi SW 29.9 mph 43.7 mph N/A   Mostly Cloudy
11:53 AM 63.0 °F - 37.0 °F 38% 29.57 in 10.0 mi West 32.2 mph 43.7 mph N/A   Scattered Clouds
12:53 PM 48.9 °F - 39.0 °F 69% 29.68 in 10.0 mi West 24.2 mph 41.4 mph N/A   Overcast
1:07 PM 48.2 °F - 37.4 °F 66% 29.71 in 10.0 mi West 19.6 mph 29.9 mph N/A   Overcast
1:53 PM 45.0 °F 36.0 °F 33.1 °F 63% 29.74 in 10.0 mi West 25.3 mph 36.8 mph N/A   Overcast
2:39 PM 46.4 °F 39.2 °F 30.2 °F 53% 29.79 in 10.0 mi WNW 18.4 mph 33.4 mph N/A   Overcast
2:53 PM 46.0 °F 38.5 °F 30.9 °F 56% 29.80 in 10.0 mi NW 19.6 mph 32.2 mph N/A   Overcast
3:53 PM 46.9 °F - 30.0 °F 52% 29.82 in 10.0 mi NW 17.3 mph 26.5 mph N/A   Overcast
4:53 PM 48.0 °F - 30.0 °F 50% 29.86 in 10.0 mi NW 13.8 mph 25.3 mph N/A   Mostly Cloudy
5:53 PM 44.1 °F 40.1 °F 25.0 °F 47% 29.88 in 10.0 mi WNW 6.9 mph - N/A   Clear
6:53 PM 39.9 °F 36.7 °F 25.0 °F 55% 29.91 in 10.0 mi WSW 4.6 mph - N/A   Clear
7:53 PM 39.0 °F 34.0 °F 25.0 °F 57% 29.91 in 10.0 mi SW 6.9 mph - N/A   Mostly Cloudy
8:53 PM 39.9 °F 33.4 °F 25.0 °F 55% 29.94 in 10.0 mi West 10.4 mph - N/A   Clear
9:53 PM 39.0 °F 32.8 °F 21.9 °F 50% 29.94 in 10.0 mi West 9.2 mph - N/A   Clear
10:53 PM 39.9 °F 33.4 °F 18.0 °F 41% 29.94 in 10.0 mi West 10.4 mph - N/A   Clear
11:53 PM 37.9 °F 30.9 °F 19.0 °F 47% 29.97 in 10.0 mi West 10.4 mph - N/A   Clear